Regional Weather Roundup
Issued by NWS

Home | Current Version | Previous Version | Text Only | Print | Product List | Glossary On
Versions: 1 2 3 4 5 6 7 8 9 10 11 12 13 14 15 16 17 18 19 20 21 22 23 24 25 26 27 28 29 30 31 32 33 34 35 36 37 38 39 40 41 42 43 44 45 46 47 48 49 50
000
ASUS42 KFFC 300903
RWRGA
WEATHER ROUNDUP FOR GEORGIA
NATIONAL WEATHER SERVICE PEACHTREE CITY GA
500 AM EDT TUE JUN 30 2015

NOTE: "FAIR" INDICATES FEW OR NO CLOUDS BELOW 12,000 FEET WITH NO
SIGNIFICANT WEATHER AND/OR OBSTRUCTIONS TO VISIBILITY.

* = USE WITH CAUTION. THE STATIONS MARKED WITH AN ASTERISK MAY NOT
REPORT WEATHER SUCH AS PRECIPITATION, FOG, OR THUNDER AND ARE NOT
QUALITY CONTROLLED BY NWS.

THE REMARK "TC" DENOTES TEMPERATURE READING IN DEGREES CELSIUS.

GAZ001>058-301000-
NORTH GEORGIA

CITY           SKY/WX    TMP DP  RH WIND       PRES   REMARKS
ATLANTA        MOCLDY    73  66  78 SW8       30.00F
ATHENS         PTCLDY    71  64  78 W3        29.99F
CHAMBLEE       CLEAR     73  67  81 SW8       30.00S
PEACHTREE CITY PTCLDY    69  66  90 CALM      30.02F
ROME           CLEAR     70  64  81 S5        29.96F
WEST ATLANTA   CLEAR     72  65  78 SW6       30.00S
GAINESVILLE    MOCLDY    74  64  71 SW8       30.02R
CARTERSVILLE   CLEAR     73  66  78 CALM      29.98F


CITY           SKY/WX    TMP DP  RH WIND       PRES   REMARKS
DALTON*        PTCLDY    70  64  83 CALM      29.96F
MARIETTA       CLEAR     73  67  84 SW5       30.00S
BLAIRSVILLE*     N/A     65  56  74 CALM      30.02F
$$

GAZ059>098-102>109-301000-
CENTRAL GEORGIA

CITY           SKY/WX    TMP DP  RH WIND       PRES   REMARKS
AUGUSTA-BUSH   CLEAR     72  64  76 SW7       29.97F
AUGUSTA-DANIEL CLEAR     73  63  70 CALM      29.99S
COLUMBUS       PTCLDY    73  69  87 SW3       30.01S
MACON          CLEAR     72  67  84 SW5       30.01S
ROBINS AFB     CLEAR     74  69  84 W6        30.01S


CITY           SKY/WX    TMP DP  RH WIND       PRES   REMARKS
LAGRANGE*      PTCLDY    74  74 100 SW3       30.02S
SYLVANIA*      CLEAR     73  69  88 CALM      30.01S
MILLEDGEVILLE* CLEAR     70  63  78 CALM      30.00S
$$

GAZ099>101-110>166-301000-
SOUTH GEORGIA

CITY           SKY/WX    TMP DP  RH WIND       PRES   REMARKS
SAVANNAH       CLEAR     71  66  84 W5        30.00S
VALDOSTA       CLEAR     72  71  97 CALM      30.04S
ALMA           CLEAR     70  68  93 CALM      30.02S
ST SIMONS      PTCLDY    74  70  87 W5        30.01S
FT STEWART     CLEAR     71  67  85 SW6       29.99S
ALBANY         CLEAR     74  72  93 SW5       30.04F
HUNTER AFB     CLEAR     73  69  89 SW6       29.98S
MOODY AFB      CLEAR     75  72  90 SW6       30.02S
BRUNSWICK      PTCLDY    70  70 100 SW3       30.02S


CITY           SKY/WX    TMP DP  RH WIND       PRES   REMARKS
BAINBRIDGE*    CLEAR     77  75  94 CALM      30.04S FOG
MOULTRIE*      CLEAR     73  72  94 SW5       30.04F FOG
VIDALIA*       CLEAR     70  66  88 SW3       30.02S
WAYCROSS*      CLEAR     73  72  96 SW3       30.02S
DOUGLAS*       CLEAR     73  72  94 SW5       30.04S
$$


USA.gov is the U.S. government's official web portal to all federal, state and local government web resources and services.